Regional Weather Roundup
Issued by NWS

Home | Current Version | Previous Version | Text Only | Print | Product List | Glossary On
Versions: 1 2 3 4 5 6 7 8 9 10 11 12 13 14 15 16 17 18 19 20 21 22 23 24 25 26 27 28 29 30 31 32 33 34 35 36 37 38 39 40 41 42 43 44 45 46 47 48 49 50
000
ASUS45 KREV 172010
RWRNV
NEVADA REGIONAL WEATHER ROUNDUP
NATIONAL WEATHER SERVICE RENO NV
1200 PM PST WED DEC 17 2014

NOTE: "FAIR" INDICATES FEW OR NO CLOUDS BELOW 12,000 FEET WITH NO
SIGNIFICANT WEATHER AND/OR OBSTRUCTIONS TO VISIBILITY.

NVZ001-003-004-172100-
WESTERN NEVADA

CITY           SKY/WX    TMP DP  RH WIND       PRES   REMARKS
RENO           PTSUNNY   48  26  42 CALM      29.94F
CARSON CITY    PTSUNNY   46  23  39 S7        29.95F
MINDEN         PTSUNNY   45  23  42 SW3       29.96
SLIDE MTN        N/A     25  23  93 SW12        N/A
PYRAMID LAKE     N/A     48 N/A N/A SW3         N/A
FALLON         MOSUNNY   49  28  44 SW6       29.94F
LOVELOCK       SUNNY     46  32  58 SW3       29.95F
HAWTHORNE      SUNNY     48  30  49 CALM      29.95F
$$

NVZ002-CAZ072-073-172100-
NORTHERN AND CENTRAL SIERRA

CITY           SKY/WX    TMP DP  RH WIND       PRES   REMARKS
S. LAKE TAHOE  CLOUDY    39  23  52 S10       29.96F
TRUCKEE        PTSUNNY   39  27  60 S8        29.96F
SQUAW VLY 8000   N/A     28  30 100 VRB13       N/A
SUSANVILLE     CLOUDY    45  32  61 W3        29.93F
BLUE CANYON    SNOW      32  30  92 S10       29.99F VSB 1/4
MAMMOTH LAKES  FAIR      34  25  69 E5          N/A
BRIDGEPORT     CLOUDY    40  19  43 SW9       29.92S
$$

NVZ030-031-036-172100-
NORTHERN NEVADA

CITY           SKY/WX    TMP DP  RH WIND       PRES   REMARKS
ELKO           CLOUDY    27  25  92 NE3       29.98F
WINNEMUCCA     CLOUDY    41  29  62 CALM      29.95F
WENDOVER       CLOUDY    36  27  69 E3        30.00F
$$

NVZ035-037-172100-
CENTRAL NEVADA

CITY           SKY/WX    TMP DP  RH WIND       PRES   REMARKS
ELY            CLOUDY    36  25  64 CALM      29.96F
EUREKA           N/A     38  25  59 CALM      29.95F
$$

NVZ013-014-172100-
SOUTH CENTRAL NEVADA

CITY           SKY/WX    TMP DP  RH WIND       PRES   REMARKS
TONOPAH        CLOUDY    39  31  72 SE3       29.98F
$$

NVZ017-020-022-172100-
SOUTHERN NEVADA

CITY           SKY/WX    TMP DP  RH WIND       PRES   REMARKS
LAS VEGAS      CLOUDY    52  39  61 S3        29.99F
N. LAS VEGAS   CLOUDY    50  37  61 E3        30.02F
NELLIS AFB     CLOUDY    52  41  66 NE5       30.02F
HENDERSON      CLOUDY    51  39  63 CALM      30.03F
MERCURY        LGT RAIN  44  39  82 E3        30.01F
$$



USA.gov is the U.S. government's official web portal to all federal, state and local government web resources and services.